Stations météo

Publicité
Tarbes/Ossun, France (7621): Température de l'air & dewpoint: 17.01.2017 01:00:00 - 23.01.2017 01:00:00 (CET)Tarbes/Ossun, France (7621): Température de l'air 5cm: 17.01.2017 01:00:00 - 23.01.2017 01:00:00 (CET)Tarbes/Ossun, France (7621): Température de l'air -20cm & Température de l'air -100cm: 17.01.2017 01:00:00 - 23.01.2017 01:00:00 (CET)Tarbes/Ossun, France (7621): Vitesse du vent & gusts: 17.01.2017 01:00:00 - 23.01.2017 01:00:00 (CET)Tarbes/Ossun, France (7621): Direction du vent: 17.01.2017 01:00:00 - 23.01.2017 01:00:00 (CET)Tarbes/Ossun, France (7621): reduced air pressure: 17.01.2017 01:00:00 - 23.01.2017 01:00:00 (CET)Tarbes/Ossun, France (7621): visibility: 17.01.2017 01:00:00 - 23.01.2017 01:00:00 (CET)Tarbes/Ossun, France (7621): Ensoleillement: 17.01.2017 01:00:00 - 23.01.2017 01:00:00 (CET)Tarbes/Ossun, France (7621): Quantités de précipitations: 17.01.2017 01:00:00 - 23.01.2017 01:00:00 (CET)
Date & Time tt [°C] td [°C] tt 5cm [°C] tt -20cm [°C] tt -100cm [°C] ff [km/h] ff [knt] fx [km/h] fx [knt] dd ppp [hPa] vv [km] sd [min] rr [mm]
23.01.2017 01:00:00 -1,9 -2,5 -4,9 3,5 7,2 10 5 14 8 SSW 1023,6 8 0 0,0
23.01.2017 00:00:00 -1,2 -1,9 -4,7 3,5 7,2 9 5 16 9 S 1023,6 13 0 0,0
22.01.2017 23:00:00 -1,1 -2,1 -4,0 3,6 7,2 6 3 13 7 SSW 1023,5 25 0 0,0
22.01.2017 22:00:00 1,1 -0,7 -3,2 3,5 7,2 2 1 8 5 SW 1022,9 46 0 0,0
22.01.2017 21:00:00 1,6 0,0 -0,3 3,5 7,3 9 5 10 6 SW 1022,6 19 0 0,0
22.01.2017 20:00:00 3,0 0,9 -2,1 3,4 7,2 5 3 6 3 N 1022,3 35 0 0,0
22.01.2017 19:00:00 5,1 0,8 1,2 3,4 7,2 4 2 12 6 SE 1021,7 58 0 0,0
22.01.2017 18:00:00 6,0 0,9 4,8 3,2 7,2 5 3 20 11 NE 1021,4 60 0 0,0
22.01.2017 17:00:00 6,8 1,3 6,7 3,1 7,3 13 7 22 12 NNE 1021,0 60 0 0,0
22.01.2017 16:00:00 7,8 0,7 8,4 2,9 7,3 14 8 32 17 NE 1020,4 60 0 0,0
22.01.2017 15:00:00 8,9 0,1 10,4 2,8 7,3 15 8 39 21 E 1019,9 60 11 0,0
22.01.2017 14:00:00 9,8 -1,0 11,2 2,7 7,3 17 9 35 19 E 1020,0 51 0 0,0
22.01.2017 13:00:00 7,9 0,6 - - - 13 7 22 12 SSE 1020,8 45 - -
22.01.2017 12:00:00 5,0 0,4 5,5 2,7 7,3 11 6 15 8 S 1022,4 33 0 0,0
22.01.2017 11:00:00 3,8 -0,4 2,4 2,7 7,3 4 2 14 7 SSE 1022,9 26 9 0,0
22.01.2017 10:00:00 1,9 -0,8 -0,1 2,7 7,3 4 2 18 10 S 1022,3 32 0 0,0
22.01.2017 09:00:00 1,0 -1,7 -1,1 2,7 7,3 14 8 19 10 S 1021,6 50 0 0,0
22.01.2017 08:00:00 0,4 -2,5 -2,0 2,7 7,3 8 4 14 8 S 1021,6 57 0 0,0
22.01.2017 07:00:00 -0,6 -2,7 -3,6 2,8 7,4 9 5 11 6 S 1021,3 59 0 0,0
22.01.2017 06:00:00 -1,2 -3,4 -5,6 2,8 7,4 10 6 13 7 SSE 1021,6 55 0 0,0
22.01.2017 05:00:00 -1,3 -4,0 -5,1 2,8 7,4 6 4 15 8 SSE 1021,7 54 0 0,0
22.01.2017 04:00:00 0,1 -3,1 -2,3 2,9 7,4 11 6 15 8 S 1021,3 53 0 0,0
22.01.2017 03:00:00 0,2 -2,7 -3,3 2,9 7,4 7 4 14 8 S 1021,5 47 0 0,0
22.01.2017 02:00:00 -1,5 -3,1 -3,6 3,0 7,4 9 5 11 6 S 1022,1 33 0 0,0
22.01.2017 01:00:00 -1,0 -3,4 -4,9 3,0 7,4 9 5 13 7 S 1022,6 24 0 0,0
22.01.2017 00:00:00 -1,8 -2,9 -5,4 3,0 7,4 11 6 14 7 S 1023,1 19 0 0,0
21.01.2017 23:00:00 -1,8 -3,8 -5,0 3,0 7,4 6 3 13 7 S 1023,2 13 0 0,0
21.01.2017 22:00:00 -0,5 -2,1 -4,5 3,0 7,4 9 5 14 7 SSE 1022,9 11 0 0,0
21.01.2017 21:00:00 -0,9 -2,9 -4,4 3,0 7,4 8 4 11 6 S 1023,1 18 0 0,0
21.01.2017 20:00:00 -1,2 -3,2 -3,7 2,9 7,4 7 4 10 6 S 1023,1 18 0 0,0
21.01.2017 19:00:00 0,3 -2,4 -2,6 2,8 7,4 9 5 12 6 S 1022,6 33 0 0,0
21.01.2017 18:00:00 3,9 -0,3 -1,7 2,7 7,4 3 2 9 5 WNW 1021,7 34 0 0,0
21.01.2017 17:00:00 5,8 0,7 5,8 2,6 7,5 10 5 20 11 N 1021,1 41 0 0,0
21.01.2017 16:00:00 8,5 -0,5 10,8 2,5 7,5 15 8 19 10 N 1020,4 56 55 0,0
21.01.2017 15:00:00 10,6 -4,6 17,5 2,4 7,5 6 3 15 8 NW 1019,7 54 60 0,0
21.01.2017 14:00:00 10,6 -3,2 18,7 2,4 7,5 4 2 11 6 SW 1020,2 18 60 0,0
21.01.2017 13:00:00 9,4 -3,2 16,4 2,4 7,5 4 2 11 6 ESE 1021,2 53 60 0,0
21.01.2017 12:00:00 6,0 -2,6 7,4 2,4 7,5 5 3 13 7 NNE 1022,5 56 60 0,0
21.01.2017 11:00:00 3,0 -2,5 0,1 2,5 7,5 8 4 16 8 N 1022,8 20 60 0,0
21.01.2017 10:00:00 0,5 -3,6 -5,8 2,5 7,5 8 4 14 8 SE 1022,9 36 60 0,0
21.01.2017 09:00:00 -3,2 -6,3 -6,2 2,5 7,5 10 5 19 10 S 1023,3 56 0 0,0
21.01.2017 08:00:00 -2,7 -5,3 -7,5 2,6 7,5 13 7 19 10 SSE 1023,3 60 0 0,0
21.01.2017 07:00:00 -4,6 -7,4 -9,0 2,6 7,5 10 6 14 8 S 1023,6 60 0 0,0
21.01.2017 06:00:00 -5,6 -7,9 -9,0 2,6 7,5 5 3 9 5 S 1024,0 59 0 0,0
21.01.2017 05:00:00 -4,4 -6,9 -9,1 2,7 7,5 2 1 7 4 E 1023,6 57 0 0,0
21.01.2017 04:00:00 -3,7 -6,2 -8,9 2,7 7,6 3 2 10 5 WNW 1023,9 45 0 0,0
21.01.2017 03:00:00 -3,4 -5,3 -7,3 2,7 7,6 9 5 13 7 SSE 1024,0 59 0 0,0
21.01.2017 02:00:00 -2,7 -4,6 -7,2 2,8 7,6 8 4 12 7 SSE 1024,0 41 0 0,0
21.01.2017 01:00:00 -2,8 -5,0 -6,4 2,8 7,6 8 4 16 9 SSE 1024,5 19 0 0,0
21.01.2017 00:00:00 -2,7 -4,0 -6,7 2,8 7,6 11 6 17 9 SSE 1024,7 13 0 0,0
20.01.2017 23:00:00 -4,3 -5,7 -7,5 2,8 7,6 9 5 10 6 S 1025,3 11 0 0,0
20.01.2017 22:00:00 -3,2 -4,5 -7,5 2,8 7,6 7 4 11 6 SSE 1025,3 4,8 0 0,0
20.01.2017 21:00:00 -3,8 -4,9 -6,7 2,8 7,6 8 5 10 5 S 1025,5 7 0 0,0
20.01.2017 20:00:00 -3,5 -5,4 -6,1 2,8 7,6 8 4 12 6 S 1025,3 8 0 0,0
20.01.2017 19:00:00 -1,7 -3,4 -5,0 2,7 7,6 9 5 12 6 SSW 1024,7 11 0 0,0
20.01.2017 18:00:00 1,9 -1,4 -3,6 2,7 7,6 5 3 12 7 NNW 1024,0 10 32 0,0
20.01.2017 17:00:00 4,4 -0,8 4,3 2,6 7,6 10 5 14 8 N 1023,0 14 60 0,0
20.01.2017 16:00:00 5,2 -2,4 9,8 2,6 7,6 8 4 13 7 N 1022,9 20 52 0,0
20.01.2017 15:00:00 5,0 -3,3 11,8 2,6 7,6 4 2 9 5 NNE 1023,2 24 45 0,0
20.01.2017 14:00:00 4,0 -4,2 12,5 2,6 7,6 5 3 15 8 NNE 1023,8 16 60 0,0
20.01.2017 13:00:00 2,9 -3,0 12,2 2,6 7,6 6 4 14 8 NNE 1024,7 17 60 0,0
20.01.2017 12:00:00 1,3 -2,5 1,4 2,7 7,7 5 3 9 5 N 1025,5 13 35 0,0
20.01.2017 11:00:00 0,3 -3,1 -0,5 2,7 7,7 0 0 9 5 N 1026,0 17 60 0,0
20.01.2017 10:00:00 -3,2 -4,0 -7,1 2,8 7,7 3 2 9 5 WSW 1026,3 13 26 0,0
20.01.2017 09:00:00 -6,2 -7,4 -9,5 2,8 7,7 2 1 12 6 E 1026,3 14 10 0,0
20.01.2017 08:00:00 -7,2 -9,0 -10,1 2,8 7,7 3 2 8 4 S 1026,5 8 0 0,0
20.01.2017 07:00:00 -6,8 -8,3 -10,0 2,9 7,7 3 2 8 4 S 1026,4 8 0 0,0
20.01.2017 06:00:00 -6,6 -7,4 -10,2 3,0 7,7 4 2 11 6 SE 1026,4 9 0 0,0
20.01.2017 05:00:00 -7,2 -8,6 -10,2 3,0 7,7 5 3 9 5 S 1026,9 7 0 0,0
20.01.2017 04:00:00 -7,1 -8,5 -10,1 3,0 7,7 6 3 9 5 S 1027,3 7 0 0,0
20.01.2017 03:00:00 -7,0 -8,2 -10,4 3,1 7,7 5 3 8 5 S 1027,7 6 0 0,0
20.01.2017 02:00:00 -6,2 -7,3 -10,2 3,2 7,7 2 1 5 3 SSE 1027,3 6 0 0,0
20.01.2017 01:00:00 -6,5 -7,6 -9,9 3,3 7,7 6 3 8 5 S 1027,6 6 0 0,0
20.01.2017 00:00:00 -6,3 -7,4 -10,0 3,3 7,7 4 2 8 4 SSW 1028,0 6 0 0,0
19.01.2017 23:00:00 -5,5 -6,5 -10,2 3,4 7,8 0 0 6 3 N 1028,3 4,5 0 0,0
19.01.2017 22:00:00 -5,0 -6,2 -9,5 3,4 7,8 5 3 8 4 SSE 1028,4 7 0 0,0
19.01.2017 21:00:00 -4,1 -5,5 -9,5 3,4 7,8 4 2 6 3 N 1028,2 6 0 0,0
19.01.2017 20:00:00 -3,5 -5,4 -8,7 3,4 7,8 4 2 10 5 N 1028,0 8 0 0,0
19.01.2017 19:00:00 -2,0 -5,2 -7,0 3,4 7,8 4 2 11 6 NE 1027,7 12 0 0,0
19.01.2017 18:00:00 -1,8 -5,1 -4,6 3,3 7,8 8 4 14 8 NNE 1027,4 18 21 0,0
19.01.2017 17:00:00 0,6 -5,4 0,7 3,2 7,8 5 3 16 9 NE 1026,8 21 60 0,0
19.01.2017 16:00:00 0,8 -5,2 6,3 3,1 7,8 5 3 16 9 NE 1026,7 20 57 0,0
19.01.2017 15:00:00 0,9 -4,9 9,1 3,0 7,8 7 4 16 9 N 1026,7 20 60 0,0
19.01.2017 14:00:00 0,2 -5,0 5,4 3,0 7,8 8 4 19 10 NNE 1027,1 20 51 0,0
19.01.2017 13:00:00 -0,7 -5,7 - - - 5 3 13 7 W 1027,7 29 - -
19.01.2017 12:00:00 -1,3 -5,9 1,1 3,1 7,8 5 3 11 6 SE 1028,6 20 0 0,0
19.01.2017 11:00:00 -1,9 -6,1 -1,8 3,1 7,8 4 2 9 5 S 1028,6 20 0 0,0
19.01.2017 10:00:00 -2,7 -6,2 -3,1 3,1 7,8 6 3 16 9 SSE 1028,2 17 0 0,0
19.01.2017 09:00:00 -3,2 -6,5 -3,6 3,1 7,8 9 5 15 8 SSE 1027,8 16 0 0,0
19.01.2017 08:00:00 -3,5 -6,8 -3,7 3,2 7,8 8 5 14 7 SSE 1027,7 16 0 0,0
19.01.2017 07:00:00 -3,6 -7,0 -3,8 3,2 7,8 10 5 14 8 SSE 1027,6 17 0 0,0
19.01.2017 06:00:00 -3,7 -7,3 -3,8 3,3 7,8 9 5 19 10 SSW 1027,8 17 0 0,0
19.01.2017 05:00:00 -3,6 -7,6 -3,9 3,3 7,8 9 5 15 8 W 1027,9 17 0 0,0
19.01.2017 04:00:00 -3,6 -7,7 -3,8 3,3 7,9 8 4 14 8 W 1028,2 19 0 0,0
19.01.2017 03:00:00 -3,5 -7,5 -3,8 3,4 7,8 5 3 14 8 SW 1028,4 19 0 0,0
19.01.2017 02:00:00 -3,4 -7,9 -4,2 3,4 7,9 7 4 13 7 W 1028,4 19 0 0,0
19.01.2017 01:00:00 -3,7 -6,6 -5,3 3,4 7,9 3 1 7 4 NNW 1028,4 16 0 0,0
19.01.2017 00:00:00 -3,7 -7,3 -5,4 3,5 7,9 4 2 7 4 NW 1028,3 15 0 0,0
18.01.2017 23:00:00 -3,6 -7,6 -4,5 3,5 7,9 2 1 6 3 W 1028,3 21 0 0,0
18.01.2017 22:00:00 -3,3 -6,8 -4,1 3,5 7,9 3 2 10 5 WNW 1028,4 20 0 0,0
18.01.2017 21:00:00 -3,0 -7,2 -3,7 3,5 7,9 4 2 6 4 NNW 1028,3 20 0 0,0
18.01.2017 20:00:00 -2,9 -7,2 -3,3 3,5 7,9 6 3 9 5 NNW 1028,3 21 0 0,0
18.01.2017 19:00:00 -2,9 -8,0 -3,5 3,5 7,9 5 3 7 4 NNE 1028,3 27 0 0,0
18.01.2017 18:00:00 -2,8 -8,3 -3,0 3,6 7,9 5 3 10 6 NNE 1027,7 27 0 0,0
18.01.2017 17:00:00 -2,5 -8,6 -1,2 3,6 7,9 5 3 11 6 N 1027,4 28 0 0,0
18.01.2017 16:00:00 -2,4 -8,3 -0,9 3,5 7,9 6 3 10 5 WNW 1027,2 30 0 0,0
18.01.2017 15:00:00 -2,2 -8,5 0,3 3,6 7,9 3 2 14 7 SSE 1027,2 33 0 0,0
18.01.2017 14:00:00 -2,0 -7,7 0,5 3,6 7,9 11 6 24 13 SW 1026,8 29 16 0,0
18.01.2017 13:00:00 -2,9 -7,6 -0,5 3,6 7,9 8 5 17 9 W 1027,3 19 0 0,0
18.01.2017 12:00:00 -3,1 -7,1 -1,1 3,7 7,9 11 6 16 9 W 1027,7 19 0 0,0
18.01.2017 11:00:00 -3,6 -7,2 -3,0 3,7 7,9 3 1 8 5 WNW 1028,2 18 0 0,0
18.01.2017 10:00:00 -4,1 -7,2 -4,2 3,8 7,9 4 2 9 5 NNE 1028,3 20 0 0,0
18.01.2017 09:00:00 -4,5 -7,3 -4,5 3,8 7,9 6 3 8 5 N 1027,7 20 0 0,0
18.01.2017 08:00:00 -4,5 -7,3 -4,4 3,9 7,9 6 4 13 7 N 1027,2 20 0 0,0
18.01.2017 07:00:00 -4,1 -7,0 -4,1 4,0 7,9 6 4 12 6 N 1027,0 24 0 0,0
18.01.2017 06:00:00 -4,0 -6,9 -4,1 4,0 7,9 8 4 11 6 N 1026,9 26 0 0,0
18.01.2017 05:00:00 -3,8 -6,9 -4,3 4,1 7,9 8 4 11 6 N 1027,0 29 0 0,0
18.01.2017 04:00:00 -3,7 -6,5 -5,0 4,1 7,9 9 5 11 6 NNW 1027,3 31 0 0,0
18.01.2017 03:00:00 -4,1 -6,9 -8,0 4,2 7,9 6 3 9 5 W 1027,6 32 0 0,0
18.01.2017 02:00:00 -4,0 -7,4 -5,8 4,3 7,9 8 4 15 8 NNW 1027,5 37 0 0,0
18.01.2017 01:00:00 -3,3 -6,9 -5,0 4,4 7,9 11 6 14 8 NW 1027,8 44 0 0,0
18.01.2017 00:00:00 -2,9 -6,9 -5,2 4,4 7,9 9 5 18 10 WNW 1028,1 44 0 0,0
17.01.2017 23:00:00 -2,0 -7,1 -5,1 4,5 7,9 9 5 14 8 WSW 1028,2 50 0 0,0
17.01.2017 22:00:00 -2,1 -6,8 -4,8 4,6 7,9 4 2 13 7 NW 1028,2 41 0 0,0
17.01.2017 21:00:00 -0,8 -6,8 -1,8 4,6 7,9 9 5 21 11 NNW 1028,0 43 0 0,0
17.01.2017 20:00:00 -0,2 -4,8 -1,1 4,6 7,9 9 5 18 10 W 1028,0 31 0 0,0
17.01.2017 19:00:00 0,1 -5,1 -0,8 4,6 7,9 11 6 19 10 W 1027,7 32 0 0,0
17.01.2017 18:00:00 0,3 -5,5 -0,5 4,6 7,9 10 5 15 8 W 1027,5 38 0 0,0
17.01.2017 17:00:00 0,5 -6,2 0,3 4,6 7,9 11 6 24 13 WSW 1027,4 52 6 0,0
17.01.2017 16:00:00 0,5 -5,7 0,9 4,5 7,9 13 7 31 17 NW 1027,1 46 20 0,0
17.01.2017 15:00:00 1,4 -6,2 4,1 4,5 7,9 17 9 32 17 NW 1026,7 53 54 0,0
17.01.2017 14:00:00 1,7 -4,2 7,5 4,6 7,9 18 10 30 16 W 1026,6 43 60 0,0
17.01.2017 13:00:00 1,2 -3,9 6,5 4,6 7,9 18 10 28 15 W 1027,5 20 60 0,0
17.01.2017 12:00:00 0,2 -3,9 3,8 4,8 7,9 16 9 22 12 WSW 1028,3 36 49 0,0
17.01.2017 11:00:00 -1,1 -4,5 -1,0 4,9 7,9 6 4 19 10 WNW 1029,0 20 60 0,0
17.01.2017 10:00:00 -2,1 -3,4 -8,6 5,0 7,9 8 4 12 6 NW 1028,8 50 60 0,0
17.01.2017 09:00:00 -4,2 -4,7 -10,4 5,1 7,9 4 2 9 5 WNW 1028,7 12 8 0,0
17.01.2017 08:00:00 -4,7 -5,2 -9,7 5,2 7,9 8 4 9 5 SW 1028,2 8 0 0,0
17.01.2017 07:00:00 -3,4 -4,1 -9,7 5,4 7,9 0 0 6 4 N 1027,7 1,4 0 0,0
17.01.2017 06:00:00 -2,5 -3,5 -8,8 5,5 7,9 4 2 7 4 ENE 1027,1 10 0 0,0
17.01.2017 05:00:00 -1,5 -2,8 -6,8 5,6 7,9 5 3 11 6 NE 1027,0 31 0 0,0
17.01.2017 04:00:00 -1,2 -2,8 -5,2 5,7 7,9 5 3 10 5 NE 1027,0 10 0 0,0
17.01.2017 03:00:00 -0,5 -2,4 -1,9 5,7 7,9 7 4 15 8 NNE 1027,0 42 0 0,0
17.01.2017 02:00:00 1,3 -1,4 0,7 5,8 7,9 13 7 23 12 NNE 1026,4 53 0 0,0
17.01.2017 01:00:00 2,3 0,5 1,8 5,8 7,9 10 5 23 12 N 1025,8 51 0 0,0

tt = Température de l'air
td = dewpoint
tt 5cm = Température de l'air 5cm
tt -20cm = Température de l'air -20cm
tt -100cm = Température de l'air -100cm
ff = Vitesse du vent
fx = gusts
dd = Direction du vent
ppp = reduced air pressure
vv = visibility
sd = Ensoleillement
rr = Quantités de précipitations

stations d'obs. à proximité